Weather in Nowy Dwor Gdanski

Poland     54°12′42″N   19°07′26″E
temp.,
°C
wind,
m/s
gust,
m/s
humid.,
%
clouds,
%
prec.,
mm/h
press.,
hPa
HPBL,
m
15 may, sat
sat1523:00+7n119147 0.0 100410
02:00+7s119080 0.0 100410
05:00+9e018196 0.0 100526
08:00+12sw2485100 0.0 1006287
11:00+12sw4588100 0.1 1007474
14:00+14w358093 0.2 1007752
17:00+16ne326810 0.1 1006520
20:00+13ene478571 0.1 1006140
16 may, sun
sun1623:00+10sse2389100 0.0 100638
02:00+10ssw4894100 0.4 1007271
05:00+10sse2497100 1.9 1006167
08:00+13ssw459094 2.3 1006537
11:00+16sse4475100 0.3 1005921
14:00+16s3477100 1.9 1004868
17:00+15sw2379100 2.0 1003339
20:00+10n3697100 3.3 1003137
17 may, mon
mon1723:00+10w1194100 0.0 100413
02:00+9s22926 0.0 100415
05:00+7ssw359410 0.0 100476
08:00+12s468697 0.0 1004349
11:00+15ssw677377 0.4 10041252
14:00+17ssw576197 1.1 10041689
17:00+16s467383 0.7 1004806
20:00+13s4685100 1.6 100489
18 may, tue
tue1823:00+10sw3390100 0.2 100454
02:00+10ssw3595100 0.8 100498
05:00+10sw369599 0.6 1004166
08:00+11wsw469265 1.1 1005466
11:00+14sw567896 1.9 10061252
14:00+15wsw577396 3.7 10061479
17:00+12n248615 1.1 1007135
20:00+11n11885 2.0 100825
19 may, wed
wed1923:00+8wsw35911 0.0 101067
02:00+7sw38945 0.0 1010138
05:00+6wsw410955 0.0 1011200
08:00+11w58827 0.0 1012574
11:00+14wsw576087 0.2 10121724
14:00+14w3661100 0.8 10121533
17:00+14wnw356753 1.0 10121047
20:00+10e11805 1.9 101227